Location: Unspecified
(50.7693°N, 0.0000°E)
Time: 09:07:31
(UTC+00:00)

SR - Pass Details

Date: 03 July 2019
Orbit: 580 x 876 km, 66.7° (Epoch: 24 July)

Event Time Altitude Azimuth Distance (km) Brightness Sun altitude
Rises 11:08:18 0° 307° (NW) 3,092 ? 60.1°
Reaches altitude 10° 11:11:48 10° 281° (W) 2,237 ? 60.4°
Maximum altitude 11:14:08 13° 254° (WSW) 2,060 ? 60.5°
Drops below altitude 10° 11:16:34 10° 226° (SW) 2,321 ? 60.7°
Sets 11:20:20 0° 201° (SSW) 3,310 ? 60.9°
